Погода в Усть-Колбе

Россия / Кемеровская область (Кузбасс)     55°52′56″N   88°17′58″E
темп.,
°C
ветер,
м/с
пор.,
м/с
влажн.,
%
обл.,
%
осадки,
мм/ч
давл.,
гПа
погр.,
м
8 марта, пн
пн801:00−13юз34892 0.0 102373
04:00−13ю228696 0.0 102321
07:00−13юв448795 0.0 102259
10:00−9юв578694 0.0 1018173
13:00−2ююв598997 0.0 1014374
16:00+1ю41289100 0.0 1009890
19:000ююз51776100 0.0 1007807
22:00−1юз71682100 0.0 10061057
9 марта, вт
вт901:00−2зюз91689100 0.1 1009988
04:00−8з7148679 0.4 1014552
07:00−11зюз5139273 0.4 1019432
10:00−11зюз8148599 0.0 1022687
13:00−8зюз81378100 0.0 1024983
16:00−7зюз7137951 0.0 1024968
19:00−9юз4138442 0.0 1023340
22:00−9ююз4138599 0.0 1022505
10 марта, ср
ср1001:00−9юз4138299 0.0 1021382
04:00−11юз5148247 0.0 1020331
07:00−11юз5148142 0.0 1019337
10:00−7юз6148124 0.0 1018588
13:00−4зюз6107656 0.0 1018787
16:00−2зюз478078 0.0 1017872
19:00−4юв118986 0.0 101521
22:00−5ююв478799 0.0 101393
11 марта, чт
чт1101:00−5юв5886100 0.0 1008126
04:00−2юв51077100 0.0 1002163
07:00+1юз91885100 0.3 10011108
10:00+1юз11199397 0.3 10021219
13:00−2зюз11197788 0.3 10061166
16:00−4зюз101681100 0.0 1010943
19:00−5зюз71584100 0.0 1012788
22:00−5зюз71587100 0.0 10151131
12 марта, пт
пт1201:00−8зюз81784100 0.0 1016680
04:00−10ююз348445 0.0 101770
07:00−7ю4148943 0.1 1013945
10:00−6юз11187567 0.1 10121574
13:00−8зюз10147778 0.1 10151551
16:00−9зюз91477100 0.1 10171504
19:00−12зюз71383100 0.1 1019999
22:00−15зюз6138899 0.0 1021991